Location: St. Louis
(38.6270°N, 90.1994°W)
Time: 01:23:22
(UTC-06:00)

Courier 1B Rocket - Pass Details

Date: 04 December 2021
Orbit: 920 x 1202 km, 28.2° (Epoch: 16 January)

Event Time Altitude Azimuth Distance (km) Brightness Sun altitude
Rises 00:22:53 0° 250° (WSW) 3,593 - -72.3°
Reaches altitude 10° 00:25:47 10° 241° (WSW) 2,626 - -72.0°
Maximum altitude 00:31:15 32° 180° (S) 1,524 - -71.5°
Drops below altitude 10° 00:36:41 10° 119° (ESE) 2,610 - -71.0°
Sets 00:39:34 0° 110° (ESE) 3,569 - -70.6°
